This is the latest recevied weather packets stored in our database for station/object KU9TRY. If no packets are shown the sender has not sent any weather packets the latest 10 day(s).
| Time | Temp. | Humidity | Pressure | Rain* | Wind** | Luminosity | Snow |
|---|---|---|---|---|---|---|---|
| 1788033798 | 31.67° C | 54% | 1018.8 hPa | 0 mm | - | 81 W/m² | - |
| 1788033497 | 32.22° C | 54% | 1018.9 hPa | 0 mm | - | 102 W/m² | - |
| 1788033193 | 32.78° C | 46% | 1018.8 hPa | 0 mm | - | 92 W/m² | - |
| 1788032889 | 32.22° C | 44% | 1018.8 hPa | 0 mm | - | 94 W/m² | - |
| 1788032587 | 32.22° C | 45% | 1019.1 hPa | 0 mm | - | 82 W/m² | - |
| 1788032283 | 32.22° C | 45% | 1019.1 hPa | 0 mm | - | 87 W/m² | - |
| 1788031978 | 32.22° C | 47% | 1019 hPa | 0 mm | - | 104 W/m² | - |
| 1788031674 | 32.22° C | 46% | 1019.1 hPa | 0 mm | - | 119 W/m² | - |
| 1788031373 | 31.11° C | 49% | 1019.1 hPa | 0 mm | - | 121 W/m² | - |
| 1788031068 | 30.56° C | 55% | 1019.4 hPa | 0 mm | - | 110 W/m² | - |
| 1788030762 | 31.67° C | 56% | 1019.3 hPa | 0 mm | - | 92 W/m² | - |
| 1788030461 | 31.67° C | 48% | 1019.2 hPa | 0 mm | - | 93 W/m² | - |
| 1788030157 | 31.11° C | 49% | 1019.3 hPa | 0 mm | - | 108 W/m² | - |
| 1788029857 | 31.11° C | 58% | 1019.3 hPa | 0 mm | - | 119 W/m² | - |
| 1788029552 | 31.67° C | 56% | 1019.5 hPa | 0 mm | - | 131 W/m² | - |
| 1788029251 | 31.67° C | 55% | 1019.4 hPa | 0 mm | - | 125 W/m² | - |
| 1788028946 | 31.67° C | 49% | 1019.6 hPa | 0 mm | - | 128 W/m² | - |
| 1788028646 | 32.22° C | 48% | 1019.5 hPa | 0 mm | - | 158 W/m² | - |
| 1788028340 | 32.22° C | 47% | 1019.4 hPa | 0 mm | - | 160 W/m² | - |
| 1788028036 | 31.67° C | 49% | 1019.4 hPa | 0 mm | - | 149 W/m² | - |
| 1788027732 | 32.22° C | 48% | 1019.6 hPa | 0 mm | - | 145 W/m² | - |
| 1788027431 | 32.78° C | 47% | 1019.7 hPa | 0 mm | - | 142 W/m² | - |
| 1788027126 | 32.78° C | 47% | 1019.8 hPa | 0 mm | - | 168 W/m² | - |
| 1788026825 | 32.78° C | 47% | 1019.7 hPa | 0 mm | - | 176 W/m² | - |
| 1788026521 | 32.78° C | 47% | 1020 hPa | 0 mm | - | 180 W/m² | - |
* Rain latest hour (hover to see other rain measurements)
** Current wind speed in m/s (hover to see current wind gust speed)